Regional Weather Roundup
Issued by NWS

Home | Current Version | Previous Version | Text Only | Print | Product List | Glossary On
Versions: 1 2 3 4 5 6 7 8 9 10 11 12 13 14 15 16 17 18 19 20 21 22 23 24 25 26 27 28 29 30 31 32 33 34 35 36 37 38 39 40 41 42 43 44 45 46 47 48 49 50
000
ASUS43 KBIS 020010
RWRND

NORTH DAKOTA REGIONAL WEATHER ROUNDUP
NATIONAL WEATHER SERVICE BISMARCK ND
700 PM CDT WED JUL 01 2015

NOTE: "FAIR" INDICATES FEW OR NO CLOUDS BELOW 12,000 FEET WITH NO
SIGNIFICANT WEATHER AND/OR OBSTRUCTIONS TO VISIBILITY.


NDZ001>003-009>011-017-020100-
NORTHWEST NORTH DAKOTA

CITY           SKY/WX    TMP DP  RH WIND       PRES   REMARKS
WILLISTON      CLOUDY    76  57  51 NW5       29.95F HAZE
6HR MIN TEMP:  72; 6HR MAX TEMP:  80;

MINOT          MOSUNNY   73  62  68 N7        29.93F
MINOT AFB      PTSUNNY   73  70  88 N5        29.93F
$$

NDZ018>021-031>035-040>046-020100-
SOUTHWEST NORTH DAKOTA

CITY           SKY/WX    TMP DP  RH WIND       PRES   REMARKS
BISMARCK       PTSUNNY   78  62  57 CALM      29.93F
6HR MIN TEMP:  74; 6HR MAX TEMP:  79;

DICKINSON      MOSUNNY   73  61  65 W5        29.97S
GARRISON         N/A     76  62  62 VRB7      29.94F
6HR MIN TEMP:  71; 6HR MAX TEMP:  77;

HETTINGER ARPT MOSUNNY   74  62  66 N6        29.99S
$$

NDZ004>008-012>016-024-026-027-054-020100-
NORTHEAST NORTH DAKOTA

CITY           SKY/WX    TMP DP  RH WIND       PRES   REMARKS
GRAND FORKS    MOSUNNY   77  61  57 SW6       29.92F HAZE
GRND FRKS AFB  SUNNY     77  61  59 S6        29.93F
DEVILS LAKE    MOSUNNY   75  57  53 SE5       29.93S
$$

NDZ022-023-025-028>030-036>039-047>053-020100-
SOUTHEAST NORTH DAKOTA

CITY           SKY/WX    TMP DP  RH WIND       PRES   REMARKS
FARGO          SUNNY     74  57  55 S10       29.95S
6HR MIN TEMP:  73; 6HR MAX TEMP:  76;

JAMESTOWN      SUNNY     74  63  68 SE7       29.93F
$$



USA.gov is the U.S. government's official web portal to all federal, state and local government web resources and services.